Weather History for Rhinelander, WI

Change the Weather History Date:

Friday, August 30, 2013

  Actual Average Record
Temperature  
Mean Temperature 72 °F 62 °F  
Max Temperature 76 °F 74 °F 92 °F (2012)
Min Temperature 68 °F 51 °F 28 °F (1915)
Degree Days  
Heating Degree Days 0 4  
Month to date heating degree days 106 72  
Since 1 June heating degree days 364 257  
Since 1 July heating degree days 190 123  
Cooling Degree Days 7 1  
Month to date cooling degree days 82 72  
Year to date cooling degree days 268 242  
Since 1 June cooling degree days 254 230  
Growing Degree Days 18 (Base 50)    
Moisture  
Dew Point 64 °F    
Average Humidity 79    
Maximum Humidity 97    
Minimum Humidity 60    
Precipitation  
Precipitation T in 0.11 in 2.00 in (1941)
Month to date precipitation 5.47 3.17  
Year to date precipitation 26.84 20.76  
Snow  
Snow 0.00 in - 0.00 in ()
Month to date snowfall 0.0  
Since 1 June snowfall 0.0  
Since 1 July snowfall 0.0  
Snow Depth 0.00 in    
Sea Level Pressure  
Sea Level Pressure 29.91 in    
Wind  
Wind Speed 7 mph (North)    
Max Wind Speed 13 mph    
Max Gust Speed 21 mph    
Visibility 9 miles    
Events Rain    
T = Trace of Precipitation, MM = Missing Value Source: NWS Daily Summary

Daily Weather History Graph

Daily Weather History Graph

Search for Another Location

Airport:

Trip Planner

Search our weather history database for the weather conditions in past years. The results will help you decide how hot, cold, wet, or windy it might be!

Date:

Astronomy

Aug. 30, 2013 Rise Set
Actual Time 6:17 AM CDT 7:39 PM CDT
Civil Twilight 5:46 AM CDT 8:09 PM CDT
Nautical Twilight 5:08 AM CDT 8:46 PM CDT
Astronomical Twilight 4:29 AM CDT 9:26 PM CDT
Moon 12:46 AM CDT 4:03 PM CDT
Length of Visible Light 14h 23m
Length of Day
13h 22m
Waning Crescent, 29% of the Moon is Illuminated
Aug 30
Waning Crescent
Sep 5
New
Sep 12
First Quarter
Sep 19
Full
Sep 26
Last Quarter

Hourly Weather History & Observations

Time (CDT) Temp. Dew Point Humidity Pressure Visibility Wind Dir Wind Speed Gust Speed Precip Events Conditions
12:53 AM 68.0 °F 66.0 °F 93% 29.93 in 10.0 mi SSE 6.9 mph - N/A   Mostly Cloudy
1:53 AM 68.0 °F 66.0 °F 93% 29.90 in 10.0 mi SSE 4.6 mph - N/A   Mostly Cloudy
2:53 AM 68.0 °F 66.0 °F 93% 29.88 in 10.0 mi South 8.1 mph - N/A   Mostly Cloudy
3:02 AM 68.0 °F 66.2 °F 94% 29.88 in 10.0 mi South 9.2 mph - N/A   Mostly Cloudy
3:53 AM 69.1 °F 66.9 °F 93% 29.83 in 10.0 mi SSW 9.2 mph - N/A   Mostly Cloudy
4:49 AM 69.8 °F 68.0 °F 94% 29.86 in 9.0 mi SW 10.4 mph - N/A   Overcast
4:53 AM 70.0 °F 68.0 °F 93% 29.83 in 9.0 mi SW 10.4 mph - N/A   Overcast
5:53 AM 71.1 °F 70.0 °F 96% 29.84 in 4.0 mi WSW 6.9 mph - N/A   Overcast
6:17 AM 71.6 °F 69.8 °F 94% 29.85 in 4.0 mi WSW 8.1 mph - N/A   Overcast
6:53 AM 71.1 °F 70.0 °F 96% 29.84 in 3.0 mi WSW 6.9 mph - N/A   Overcast
7:26 AM 71.6 °F 69.8 °F 94% 29.87 in 3.0 mi NW 8.1 mph - 0.00 in Rain Light Rain
7:45 AM 71.6 °F 69.8 °F 94% 29.87 in 8.0 mi NW 5.8 mph - 0.00 in   Overcast
7:53 AM 71.1 °F 69.1 °F 93% 29.87 in 9.0 mi Variable 5.8 mph - 0.00 in   Overcast
8:16 AM 71.6 °F 68.0 °F 88% 29.87 in 10.0 mi North 9.2 mph - N/A   Overcast
8:53 AM 69.1 °F 64.9 °F 87% 29.87 in 10.0 mi Variable 6.9 mph - N/A   Overcast
9:53 AM 71.1 °F 64.0 °F 78% 29.88 in 10.0 mi North 9.2 mph - N/A   Mostly Cloudy
10:53 AM 68.0 °F 62.1 °F 81% 29.91 in 10.0 mi Variable 5.8 mph 17.3 mph N/A   Overcast
11:53 AM 73.0 °F 63.0 °F 71% 29.91 in 10.0 mi North 9.2 mph 16.1 mph N/A   Mostly Cloudy
12:53 PM 73.9 °F 62.1 °F 66% 29.91 in 10.0 mi Variable 6.9 mph - N/A   Mostly Cloudy
1:09 PM 73.4 °F 60.8 °F 65% 29.93 in 10.0 mi North 10.4 mph 18.4 mph N/A   Scattered Clouds
1:20 PM 71.6 °F 62.6 °F 73% 29.93 in 10.0 mi NNW 8.1 mph - N/A   Mostly Cloudy
1:27 PM 73.4 °F 62.6 °F 69% 29.94 in 10.0 mi NNW 12.7 mph 17.3 mph N/A   Scattered Clouds
1:41 PM 73.4 °F 60.8 °F 65% 29.94 in 10.0 mi NNE 9.2 mph 17.3 mph N/A   Mostly Cloudy
1:53 PM 73.0 °F 62.1 °F 68% 29.92 in 10.0 mi NNE 8.1 mph 16.1 mph N/A   Mostly Cloudy
2:53 PM 75.0 °F 61.0 °F 62% 29.92 in 10.0 mi Variable 6.9 mph - N/A   Mostly Cloudy
3:07 PM 73.4 °F 60.8 °F 65% 29.94 in 10.0 mi NNE 9.2 mph - N/A   Scattered Clouds
3:53 PM 75.0 °F 62.1 °F 64% 29.91 in 10.0 mi Variable 5.8 mph - N/A   Scattered Clouds
4:53 PM 75.0 °F 61.0 °F 62% 29.91 in 10.0 mi NE 5.8 mph - N/A   Scattered Clouds
5:53 PM 73.9 °F 60.1 °F 62% 29.92 in 10.0 mi Variable 5.8 mph - N/A   Scattered Clouds
6:53 PM 71.1 °F 62.1 °F 73% 29.93 in 10.0 mi Variable 6.9 mph - N/A   Scattered Clouds
7:39 PM 69.8 °F 62.6 °F 78% 29.96 in 10.0 mi NNE 6.9 mph - N/A   Mostly Cloudy
7:53 PM 69.1 °F 62.1 °F 78% 29.94 in 10.0 mi NNE 4.6 mph - N/A   Overcast
8:49 PM 66.2 °F 60.8 °F 83% 29.97 in 10.0 mi ENE 10.4 mph - N/A   Scattered Clouds
8:53 PM 66.0 °F 59.0 °F 78% 29.96 in 10.0 mi ENE 9.2 mph - N/A   Scattered Clouds
9:53 PM 63.0 °F 57.9 °F 84% 29.97 in 10.0 mi NE 3.5 mph - N/A   Clear
10:53 PM 62.1 °F 57.9 °F 86% 29.96 in 10.0 mi NE 3.5 mph - N/A   Clear
11:53 PM 55.9 °F 55.0 °F 97% 29.95 in 10.0 mi Calm Calm - N/A   Clear